Regional Weather Roundup
Issued by NWS

Home | Current Version | Previous Version | Graphics & Text | Print | Product List | Glossary On
Versions: 1 2 3 4 5 6 7 8 9 10 11 12 13 14 15 16 17 18 19 20 21 22 23 24 25 26 27 28 29 30 31 32 33 34 35 36 37 38 39 40 41 42 43 44 45 46 47 48 49 50
000
ASUS43 KBIS 200310
RWRND

NORTH DAKOTA REGIONAL WEATHER ROUNDUP
NATIONAL WEATHER SERVICE BISMARCK ND
900 PM CST FRI JAN 19 2018

NOTE: "FAIR" INDICATES FEW OR NO CLOUDS BELOW 12,000 FEET WITH NO
SIGNIFICANT WEATHER AND/OR OBSTRUCTIONS TO VISIBILITY.


NDZ001>003-009>011-017-200400-
NORTHWEST NORTH DAKOTA

CITY           SKY/WX    TMP DP  RH WIND       PRES   REMARKS
WILLISTON      PTCLDY    32  23  69 SW8       29.69R
MINOT          PTCLDY    35  26  69 W12       29.63R
MINOT AFB      CLOUDY    32  26  77 W16       29.61R
$$

NDZ018>021-031>035-040>046-200400-
SOUTHWEST NORTH DAKOTA

CITY           SKY/WX    TMP DP  RH WIND       PRES   REMARKS
BISMARCK       PTCLDY    37  31  78 NW5       29.70R
DICKINSON      PTCLDY    33  28  81 W15       29.68R
GARRISON         N/A     32  25  75 W10       29.65S
HETTINGER ARPT CLOUDY    34  31  88 NW10      29.73F
$$

NDZ004>008-012>016-024-026-027-054-200400-
NORTHEAST NORTH DAKOTA

CITY           SKY/WX    TMP DP  RH WIND       PRES   REMARKS
GRAND FORKS    FAIR      32  29  88 SW12      29.61R
GRND FRKS AFB  FAIR      32  28  84 W9        29.61R
DEVILS LAKE    FAIR      30  26  85 W14       29.62R WCI  19
$$

NDZ022-023-025-028>030-036>039-047>053-200400-
SOUTHEAST NORTH DAKOTA

CITY           SKY/WX    TMP DP  RH WIND       PRES   REMARKS
FARGO          FAIR      34  29  82 W9        29.65R
JAMESTOWN      CLEAR     34  28  79 W9        29.66R
$$





USA.gov is the U.S. government's official web portal to all federal, state and local government web resources and services.